Location: Avon School (historical)
(37.7514°N, 90.2201°W)
Time: 02:02:33
(UTC+00:00)

Explorer 7 - Pass Details

Date: 16 December 2025
Orbit: 433 x 550 km, 50.2° (Epoch: 13 January)

Event Time Altitude Azimuth Distance (km) Brightness Sun altitude
Rises 00:11:02 0° 289° (WNW) 2,459 11.1 -16.8°
Reaches altitude 10° 00:14:12 10° 319° (NW) 1,566 9.4 -17.4°
Maximum altitude 00:15:51 13° 348° (NNW) 1,397 8.8 -17.7°
Enters shadow 00:16:30 12° 359° (N) 1,420 8.8 -17.8°
